When you browse on this site, cookies collect data to enhance your experience and personalize the content and advertising you see.
Visit our Privacy Policy to learn more. By continuing to use the site, you agree to this use of cookies and data.
  • In United Kingdom
  • List of Countries
  • For 7 days
  • Water Temperature
  • Weather Map
  • Weather Widgets
  • user-avatar
    Login

    Hourly Weather Brzozow

    Today, 19 November, Tuesday

    Time Temperature Precipitation Wind Pressure Humidity
    00:00 +8°C° 0 mm 4 mps 739 mmHg 84%
    01:00 +8°C° 0 mm 3 mps 740 mmHg 84%
    02:00 +8°C° 0 mm 3 mps 740 mmHg 84%
    03:00 +7°C° 0 mm 3 mps 740 mmHg 83%
    04:00 +7°C° 0 mm 3 mps 741 mmHg 83%
    05:00 +7°C° 0 mm 3 mps 741 mmHg 83%
    06:00 +7°C° 0 mm 3 mps 741 mmHg 83%
    07:00 +6°C° 0 mm 2 mps 741 mmHg 84%
    08:00 +8°C° 0 mm 3 mps 741 mmHg 76%
    09:00 +9°C° 0 mm 3 mps 741 mmHg 69%
    10:00 +11°C° 0 mm 4 mps 741 mmHg 62%
    11:00 +11°C° 0 mm 3 mps 741 mmHg 59%
    12:00 +12°C° 0 mm 3 mps 741 mmHg 56%
    13:00 +13°C° 0 mm 3 mps 741 mmHg 54%
    14:00 +11°C° 0 mm 3 mps 741 mmHg 58%
    15:00 +10°C° 0 mm 2 mps 741 mmHg 62%
    16:00 +9°C° 0 mm 2 mps 740 mmHg 67%
    17:00 +9°C° 0 mm 2 mps 740 mmHg 67%
    18:00 +8°C° 0 mm 2 mps 740 mmHg 68%
    19:00 +8°C° 0 mm 2 mps 740 mmHg 69%
    20:00 +8°C° 0 mm 2 mps 740 mmHg 69%
    21:00 +7°C° 0 mm 2 mps 740 mmHg 69%
    22:00 +7°C° 0 mm 2 mps 740 mmHg 69%
    23:00 +7°C° 0 mm 2 mps 740 mmHg 70%

    Tomorrow, 20 November, Wednesday

    Time Temperature Precipitation Wind Pressure Humidity
    00:00 +7°C° 0 mm 2 mps 740 mmHg 72%
    01:00 +7°C° 0 mm 2 mps 740 mmHg 74%
    02:00 +7°C° 0 mm 2 mps 740 mmHg 76%
    03:00 +8°C° 0 mm 1 mps 739 mmHg 77%
    04:00 +8°C° 0 mm 1 mps 739 mmHg 79%
    05:00 +8°C° 0 mm 1 mps 739 mmHg 80%
    06:00 +7°C° 0 mm 1 mps 739 mmHg 81%
    07:00 +7°C° 0 mm 1 mps 739 mmHg 82%
    08:00 +8°C° 0 mm 2 mps 739 mmHg 79%
    09:00 +9°C° 0 mm 2 mps 739 mmHg 77%
    10:00 +10°C° 0 mm 2 mps 739 mmHg 74%
    11:00 +10°C° 0 mm 3 mps 738 mmHg 75%
    12:00 +11°C° 0 mm 3 mps 738 mmHg 76%
    13:00 +11°C° 0 mm 4 mps 738 mmHg 77%
    14:00 +11°C° 0 mm 4 mps 737 mmHg 80%
    15:00 +10°C° 0 mm 4 mps 737 mmHg 83%
    16:00 +8°C° 0 mm 4 mps 737 mmHg 86%
    17:00 +8°C° 0 mm 4 mps 737 mmHg 87%
    18:00 +8°C° 0 mm 4 mps 737 mmHg 88%
    19:00 +8°C° 0 mm 4 mps 737 mmHg 90%
    20:00 +8°C° 0 mm 4 mps 737 mmHg 89%
    21:00 +8°C° 0 mm 4 mps 737 mmHg 89%
    22:00 +9°C° 0 mm 3 mps 736 mmHg 88%
    23:00 +9°C° 0 mm 3 mps 736 mmHg 88%

    Day after tomorrow, 21 November, Thursday

    Time Temperature Precipitation Wind Pressure Humidity
    00:00 +9°C° 0 mm 3 mps 736 mmHg 88%
    01:00 +9°C° 0 mm 2 mps 736 mmHg 88%
    02:00 +9°C° 0.1 mm 2 mps 736 mmHg 89%
    03:00 +9°C° 0.1 mm 2 mps 736 mmHg 90%
    04:00 +8°C° 0.1 mm 2 mps 736 mmHg 91%
    05:00 +9°C° 0.5 mm 2 mps 736 mmHg 92%
    06:00 +9°C° 0.5 mm 2 mps 736 mmHg 92%
    07:00 +9°C° 0.5 mm 2 mps 736 mmHg 93%
    08:00 +9°C° 0.4 mm 2 mps 736 mmHg 91%
    09:00 +9°C° 0.4 mm 2 mps 737 mmHg 90%
    10:00 +10°C° 0.4 mm 2 mps 737 mmHg 89%
    11:00 +10°C° 0.1 mm 3 mps 737 mmHg 85%
    12:00 +11°C° 0.1 mm 3 mps 737 mmHg 81%
    13:00 +12°C° 0.1 mm 4 mps 737 mmHg 77%
    14:00 +11°C° 0.5 mm 4 mps 737 mmHg 81%
    15:00 +10°C° 0.5 mm 4 mps 736 mmHg 85%
    16:00 +8°C° 0.5 mm 4 mps 736 mmHg 89%
    17:00 +8°C° 0.7 mm 4 mps 736 mmHg 89%
    18:00 +8°C° 0.7 mm 4 mps 737 mmHg 90%
    19:00 +8°C° 0.7 mm 4 mps 737 mmHg 90%
    20:00 +8°C° 0.5 mm 4 mps 737 mmHg 91%
    21:00 +9°C° 0.5 mm 3 mps 737 mmHg 91%
    22:00 +9°C° 0.5 mm 3 mps 737 mmHg 91%
    23:00 +8°C° 0 mm 3 mps 738 mmHg 91%

    22 November, Friday

    Time Temperature Precipitation Wind Pressure Humidity
    00:00 +8°C° 0 mm 3 mps 738 mmHg 90%
    01:00 +8°C° 0 mm 3 mps 738 mmHg 90%
    02:00 +8°C° 0 mm 3 mps 738 mmHg 90%
    03:00 +8°C° 0 mm 3 mps 738 mmHg 89%
    04:00 +8°C° 0 mm 3 mps 738 mmHg 89%
    05:00 +8°C° 0 mm 3 mps 738 mmHg 88%
    06:00 +8°C° 0 mm 3 mps 738 mmHg 87%
    07:00 +8°C° 0 mm 3 mps 738 mmHg 86%
    08:00 +8°C° 0 mm 3 mps 739 mmHg 82%
    09:00 +9°C° 0 mm 3 mps 739 mmHg 78%
    10:00 +10°C° 0 mm 3 mps 739 mmHg 74%
    11:00 +11°C° 0 mm 3 mps 739 mmHg 73%
    12:00 +11°C° 0 mm 3 mps 739 mmHg 71%
    13:00 +12°C° 0 mm 3 mps 738 mmHg 69%
    14:00 +12°C° 0 mm 2 mps 738 mmHg 74%
    15:00 +9°C° 0 mm 2 mps 738 mmHg 79%
    16:00 +8°C° 0 mm 2 mps 738 mmHg 84%
    17:00 +7°C° 0 mm 2 mps 738 mmHg 85%
    18:00 +7°C° 0 mm 2 mps 738 mmHg 85%
    19:00 +6°C° 0 mm 2 mps 738 mmHg 86%
    20:00 +6°C° 0 mm 2 mps 738 mmHg 86%
    21:00 +5°C° 0 mm 2 mps 738 mmHg 86%
    22:00 +5°C° 0 mm 2 mps 738 mmHg 85%
    23:00 +5°C° 0 mm 2 mps 738 mmHg 85%

    23 November, Saturday

    Time Temperature Precipitation Wind Pressure Humidity
    00:00 +5°C° 0 mm 2 mps 738 mmHg 85%
    01:00 +5°C° 0 mm 2 mps 738 mmHg 85%
    02:00 +5°C° 0 mm 2 mps 737 mmHg 85%
    03:00 +5°C° 0 mm 2 mps 737 mmHg 85%
    04:00 +5°C° 0 mm 2 mps 737 mmHg 85%
    05:00 +5°C° 0 mm 2 mps 737 mmHg 85%
    06:00 +5°C° 0 mm 2 mps 737 mmHg 86%
    07:00 +5°C° 0 mm 2 mps 737 mmHg 86%
    08:00 +5°C° 0 mm 3 mps 737 mmHg 85%
    09:00 +7°C° 0 mm 3 mps 737 mmHg 83%
    10:00 +8°C° 0 mm 3 mps 737 mmHg 82%
    11:00 +8°C° 0 mm 4 mps 737 mmHg 80%
    12:00 +8°C° 0 mm 4 mps 737 mmHg 78%
    13:00 +10°C° 0 mm 4 mps 736 mmHg 77%
    14:00 +9°C° 0 mm 3 mps 736 mmHg 80%
    15:00 +8°C° 0 mm 3 mps 736 mmHg 83%
    16:00 +7°C° 0 mm 3 mps 736 mmHg 87%
    17:00 +7°C° 0 mm 3 mps 736 mmHg 87%
    18:00 +5°C° 0 mm 3 mps 736 mmHg 88%
    19:00 +5°C° 0 mm 3 mps 736 mmHg 88%
    20:00 +5°C° 0 mm 3 mps 736 mmHg 89%
    21:00 +5°C° 0 mm 3 mps 737 mmHg 89%
    22:00 +5°C° 0 mm 3 mps 737 mmHg 89%
    23:00 +5°C° 0 mm 3 mps 737 mmHg 89%

    24 November, Sunday

    Time Temperature Precipitation Wind Pressure Humidity
    00:00 +5°C° 0 mm 3 mps 737 mmHg 89%
    01:00 +5°C° 0 mm 3 mps 737 mmHg 89%
    02:00 +5°C° 0 mm 3 mps 737 mmHg 90%
    03:00 +4°C° 0 mm 3 mps 737 mmHg 90%
    04:00 +4°C° 0 mm 3 mps 736 mmHg 90%
    05:00 +4°C° 0 mm 3 mps 737 mmHg 90%
    06:00 +4°C° 0 mm 3 mps 737 mmHg 90%
    07:00 +4°C° 0 mm 3 mps 737 mmHg 90%
    08:00 +7°C° 0 mm 3 mps 737 mmHg 84%
    09:00 +8°C° 0 mm 3 mps 737 mmHg 78%
    10:00 +10°C° 0 mm 4 mps 738 mmHg 72%
    11:00 +10°C° 0 mm 4 mps 738 mmHg 70%
    12:00 +11°C° 0 mm 4 mps 738 mmHg 69%
    13:00 +11°C° 0 mm 4 mps 737 mmHg 67%
    14:00 +10°C° 0 mm 4 mps 737 mmHg 72%
    15:00 +9°C° 0 mm 3 mps 737 mmHg 78%
    16:00 +8°C° 0 mm 2 mps 738 mmHg 83%
    17:00 +7°C° 0 mm 2 mps 738 mmHg 85%
    18:00 +7°C° 0 mm 2 mps 738 mmHg 87%
    19:00 +6°C° 0 mm 2 mps 738 mmHg 89%
    20:00 +6°C° 0 mm 2 mps 738 mmHg 90%
    21:00 +6°C° 0 mm 2 mps 738 mmHg 90%
    22:00 +6°C° 0 mm 2 mps 738 mmHg 90%
    23:00 +7°C° 0 mm 1 mps 738 mmHg 91%
    Show more